Tracking 29892 objects as of 21-Nov-2024
HD Live streaming from Space Station
objects crossing your sky now

SL-12 R/B(2)

Track SL-12 R/B(2) now!


NORAD ID: 21703
Int'l Code: 1991-064B
Perigee: 35,902.7 km
Apogee: 35,904.3 km
Inclination: 13.8 °
Period: 1,441.7 minutes
Semi major axis: 42274 km
RCS: 2.9337 m2 (large)
Launch date: September 13, 1991
Source: Commonwealth of Independent States (former USSR) (CIS)
Launch site: TYURATAM MISSILE AND SPACE COMPLEX (TTMTR)

Note: This is a ROCKET BODY
Your satellite tracking list
Your tracking list is empty




NASA's NSSDC Master Catalog

Two Line Element Set (TLE):
1 21703U 91064B   24325.07098260 -.00000005  00000-0  00000-0 0  9997
2 21703  13.7889 344.0872 0000187 251.4361 280.9809  0.99881460114419
Source of the keplerian elements: AFSPC